KD2RHT-13 Weather Reports


Display with metric or nautical units.
time (UTC)temp
F
wind
direction
speed
MPH
gust
MPH
rain 1hr
in
rain 24hr
in
rain mn
in
humidity
%
barometer
mb
20260902000047 72 158 0.0 0.0 0.00 0.15 0.15 97 1016.2
20260901235541 72 157 0.0 0.0 0.00 0.15 0.15 97 1016.2
20260901235037 72 155 0.0 0.0 0.00 0.15 0.15 96 1016.6
20260901234536 73 155 0.0 0.0 0.00 0.15 0.15 96 1016.6
20260901234032 73 145 0.0 0.0 0.00 0.15 0.15 96 1016.2
20260901233531 73 159 0.0 0.0 0.00 0.15 0.15 95 1016.6
20260901233027 73 159 0.0 0.0 0.00 0.15 0.15 95 1016.6
20260901232523 73 159 0.0 0.0 0.00 0.15 0.15 95 1016.6
20260901232018 74 162 0.0 0.0 0.00 0.15 0.15 94 1016.6
20260901231514 74 145 0.0 0.0 0.00 0.15 0.15 94 1016.6
20260901231011 74 154 0.0 1.0 0.00 0.15 0.15 94 1016.6
20260901230510 75 160 0.0 0.0 0.00 0.15 0.15 94 1016.6
20260901230005 75 162 0.0 0.0 0.00 0.15 0.15 93 1016.6
20260901225500 75 157 0.0 0.0 0.00 0.15 0.15 93 1016.6
20260901224954 75 120 1.0 2.0 0.00 0.15 0.15 92 1016.6
20260901224450 75 68 0.0 1.0 0.00 0.15 0.15 92 1016.6
20260901223946 76 147 0.0 0.0 0.00 0.15 0.15 92 1016.9
20260901223442 76 146 0.0 0.0 0.00 0.15 0.15 92 1016.9
20260901222937 76 160 1.0 1.0 0.00 0.15 0.15 91 1016.6
20260901222433 77 116 0.0 1.0 0.00 0.15 0.15 90 1016.6
20260901221929 77 150 0.0 1.0 0.00 0.15 0.15 90 1016.6
20260901221425 77 151 0.0 0.0 0.00 0.15 0.15 90 1016.6
20260901220920 77 174 1.0 1.0 0.00 0.15 0.15 90 1016.6
20260901220419 77 159 1.0 1.0 0.00 0.15 0.15 89 1016.6
20260901215918 78 220 2.0 2.0 0.00 0.15 0.15 89 1016.2
20260901215416 78 159 1.0 1.0 0.00 0.15 0.15 89 1016.2
20260901214916 78 189 1.0 1.0 0.00 0.15 0.15 88 1016.6
20260901214414 78 147 2.0 2.0 0.00 0.15 0.15 88 1016.2
20260901213914 78 131 0.0 0.0 0.00 0.15 0.15 89 1016.2
20260901213409 78 124 0.0 0.0 0.00 0.15 0.15 89 1016.2
20260901212908 78 156 1.0 1.0 0.00 0.15 0.15 89 1016.2
20260901212404 78 186 1.0 1.0 0.00 0.15 0.15 89 1016.2
20260901211901 78 189 1.0 1.0 0.00 0.15 0.15 89 1016.2
20260901211355 78 148 0.0 1.0 0.00 0.15 0.15 88 1016.6
20260901210851 78 155 0.0 0.0 0.00 0.15 0.15 89 1015.9
20260901210341 78 160 1.0 1.0 0.00 0.15 0.15 88 1016.2
20260901205837 78 161 1.0 1.0 0.00 0.15 0.15 89 1016.6
20260901205337 78 178 1.0 1.0 0.00 0.15 0.15 90 1016.2
20260901204832 78 164 0.0 1.0 0.00 0.15 0.15 89 1016.6
20260901204329 78 160 0.0 0.0 0.00 0.15 0.15 89 1016.6
20260901203828 78 161 0.0 0.0 0.00 0.15 0.15 89 1016.6
20260901203322 78 175 0.0 0.0 0.00 0.15 0.15 89 1016.6
20260901202817 78 157 0.0 1.0 0.00 0.15 0.15 89 1016.6
20260901202312 78 159 0.0 0.0 0.00 0.15 0.15 88 1016.6
20260901201809 78 158 0.0 0.0 0.00 0.15 0.15 88 1016.2
20260901201308 79 163 0.0 0.0 0.00 0.15 0.15 88 1016.6
20260901200802 79 178 1.0 1.0 0.00 0.15 0.15 88 1016.2
20260901200258 78 155 0.0 0.0 0.00 0.15 0.15 89 1016.2
20260901195755 78 140 0.0 0.0 0.00 0.15 0.15 90 1016.2
20260901195249 78 154 1.0 2.0 0.00 0.15 0.15 89 1016.6
20260901194745 78 189 2.0 2.0 0.00 0.15 0.15 89 1016.2
20260901194240 78 150 1.0 2.0 0.00 0.15 0.15 88 1016.2
20260901193736 78 169 0.0 0.0 0.00 0.15 0.15 89 1016.2
20260901193235 79 142 1.0 1.0 0.00 0.15 0.15 88 1016.2
20260901192730 79 182 0.0 1.0 0.00 0.15 0.15 87 1016.2
20260901192225 80 159 0.0 0.0 0.00 0.15 0.15 86 1016.2
20260901191721 80 161 0.0 0.0 0.00 0.15 0.15 85 1016.2
20260901191217 81 161 0.0 0.0 0.00 0.15 0.15 85 1016.2
20260901190713 81 154 0.0 1.0 0.00 0.15 0.15 86 1016.2
20260901190212 81 218 0.0 1.0 0.00 0.15 0.15 85 1016.2
20260901185710 80 153 1.0 3.0 0.00 0.15 0.15 85 1016.2
20260901185208 81 129 1.0 1.0 0.00 0.15 0.15 85 1015.9
20260901184705 81 164 1.0 1.0 0.00 0.15 0.15 85 1016.2
20260901184154 80 124 1.0 1.0 0.00 0.15 0.15 87 1016.2
20260901183649 80 171 1.0 2.0 0.00 0.15 0.15 86 1016.2
20260901183149 80 177 1.0 1.0 0.00 0.15 0.15 86 1016.2
20260901182645 80 150 0.0 0.0 0.00 0.15 0.15 88 1015.9
20260901182144 80 162 0.0 0.0 0.00 0.15 0.15 87 1015.9
20260901181639 79 160 1.0 1.0 0.00 0.15 0.15 88 1016.2
20260901181134 79 169 0.0 0.0 0.00 0.15 0.15 89 1015.9
20260901180634 79 170 2.0 2.0 0.00 0.15 0.15 87 1015.9
20260901180128 79 124 0.0 0.0 0.00 0.15 0.15 89 1015.9
20260901175626 79 164 0.0 0.0 0.00 0.15 0.15 89 1015.9
20260901175121 79 163 0.0 0.0 0.00 0.15 0.15 89 1015.6
20260901174617 79 155 0.0 0.0 0.00 0.15 0.15 89 1015.9
20260901174113 78 166 1.0 2.0 0.00 0.15 0.15 89 1015.6
20260901173607 78 156 0.0 1.0 0.00 0.15 0.15 90 1015.6
20260901173103 78 186 1.0 1.0 0.00 0.15 0.15 90 1015.6
20260901172558 78 163 1.0 2.0 0.00 0.15 0.15 90 1015.6
20260901172057 79 37 1.0 2.0 0.00 0.15 0.15 89 1015.6
20260901171556 79 199 1.0 2.0 0.00 0.15 0.15 88 1015.6
20260901171055 78 157 0.0 1.0 0.00 0.15 0.15 90 1015.6
20260901170549 77 140 0.0 0.0 0.00 0.15 0.15 92 1015.6
20260901170044 78 116 0.0 1.0 0.00 0.15 0.15 91 1015.6
20260901165544 78 92 1.0 2.0 0.00 0.15 0.15 91 1015.9
20260901165039 78 148 0.0 1.0 0.00 0.15 0.15 91 1015.9
20260901164535 78 148 1.0 3.0 0.00 0.15 0.15 90 1015.6
20260901164029 78 160 0.0 0.0 0.00 0.15 0.15 91 1015.9
20260901163525 78 179 0.0 0.0 0.00 0.15 0.15 91 1015.9
20260901163024 78 341 2.0 2.0 0.00 0.15 0.15 90 1015.6
20260901162520 78 143 1.0 1.0 0.00 0.15 0.15 91 1015.9
20260901162018 78 159 0.0 1.0 0.00 0.15 0.15 89 1015.6
20260901161512 79 161 0.0 0.0 0.00 0.15 0.15 89 1015.6
20260901161012 79 158 0.0 0.0 0.00 0.15 0.15 89 1015.6
20260901160508 79 164 1.0 1.0 0.00 0.15 0.15 90 1015.6
20260901160009 78 160 1.0 1.0 0.00 0.15 0.15 91 1015.9
20260901155508 77 145 0.0 0.0 0.00 0.15 0.15 92 1015.6
20260901155004 77 113 0.0 1.0 0.00 0.15 0.15 92 1015.6
20260901154503 77 143 0.0 0.0 0.00 0.15 0.15 93 1015.6
20260901153959 75 199 0.0 1.0 0.00 0.15 0.15 95 1015.6
20260901153459 74 175 0.0 1.0 0.00 0.15 0.15 96 1015.9
20260901152958 74 144 0.0 0.0 0.00 0.15 0.15 97 1015.6
20260901152453 74 157 0.0 0.0 0.00 0.15 0.15 98 1015.6
20260901151952 73 148 1.0 1.0 0.00 0.15 0.15 99 1015.6
20260901151447 72 159 0.0 0.0 0.00 0.15 0.15 99 1015.6
20260901150946 72 168 0.0 0.0 0.00 0.15 0.15 99 1015.9
20260901150444 71 180 1.0 2.0 0.00 0.15 0.15 99 1015.6
20260901145942 71 159 0.0 0.0 0.00 0.15 0.15 99 1015.6
20260901145436 71 164 1.0 2.0 0.00 0.15 0.15 99 1015.2
20260901144931 70 177 1.0 2.0 0.00 0.15 0.15 99 1015.2
20260901144426 70 161 0.0 0.0 0.00 0.15 0.15 99 1015.6
20260901143922 70 173 0.0 0.0 0.00 0.15 0.15 99 1015.2
20260901143418 69 157 0.0 1.0 0.00 0.15 0.15 99 1015.9
20260901142915 69 170 1.0 1.0 0.00 0.15 0.15 99 1015.9
20260901142414 69 150 0.0 0.0 0.00 0.15 0.15 99 1015.9
20260901141909 69 202 2.0 2.0 0.00 0.15 0.15 99 1015.9
20260901141404 69 160 0.0 0.0 0.00 0.15 0.15 99 1015.9
20260901140903 69 120 1.0 2.0 0.00 0.15 0.15 99 1015.9
20260901140401 69 160 0.0 0.0 0.00 0.15 0.15 99 1015.6
20260901135856 69 160 0.0 0.0 0.00 0.15 0.15 99 1015.9
20260901135351 69 153 0.0 0.0 0.00 0.15 0.15 99 1015.9
20260901134847 69 159 0.0 0.0 0.00 0.15 0.15 99 1015.6
20260901134342 69 170 0.0 0.0 0.00 0.15 0.15 99 1015.6
20260901133836 69 153 0.0 0.0 0.00 0.15 0.15 99 1015.6
20260901133335 69 163 0.0 0.0 0.00 0.15 0.15 99 1015.9
20260901132834 68 158 0.0 0.0 0.00 0.15 0.15 99 1015.6
20260901132329 69 164 0.0 0.0 0.00 0.15 0.15 99 1015.9
20260901131823 69 146 0.0 0.0 0.00 0.15 0.15 99 1015.9
20260901131323 68 162 0.0 0.0 0.00 0.15 0.15 99 1015.9
20260901130818 68 144 0.0 0.0 0.00 0.15 0.15 99 1015.9
20260901130313 68 162 0.0 0.0 0.00 0.15 0.15 99 1015.9
20260901125811 68 210 0.0 0.0 0.00 0.15 0.15 99 1015.9
20260901125310 68 162 0.0 0.0 0.00 0.15 0.15 99 1015.9
20260901124806 69 154 0.0 0.0 0.00 0.15 0.15 99 1015.9
20260901124300 69 138 0.0 0.0 0.00 0.15 0.15 99 1015.9
20260901123759 68 165 0.0 1.0 0.00 0.15 0.15 99 1015.9
20260901123255 68 161 0.0 1.0 0.00 0.15 0.15 99 1015.9
20260901122754 68 171 0.0 0.0 0.00 0.15 0.15 99 1015.9
20260901122248 68 161 0.0 0.0 0.00 0.15 0.15 99 1015.9
20260901121742 68 169 0.0 0.0 0.00 0.15 0.15 99 1015.9
20260901121237 68 162 0.0 0.0 0.00 0.15 0.15 99 1016.2
20260901120737 68 156 0.0 0.0 0.00 0.15 0.15 99 1016.2
20260901120232 68 172 0.0 0.0 0.00 0.15 0.15 99 1016.2
20260901115727 68 169 0.0 0.0 0.00 0.15 0.15 99 1016.2
20260901115223 68 155 0.0 0.0 0.00 0.15 0.15 99 1015.9
20260901114720 68 152 1.0 1.0 0.00 0.15 0.15 99 1015.9
20260901114215 68 156 0.0 0.0 0.00 0.15 0.15 99 1015.9
20260901113713 68 158 0.0 0.0 0.00 0.15 0.15 99 1015.9
20260901113208 68 170 1.0 1.0 0.00 0.15 0.15 99 1015.9
20260901112708 68 163 0.0 0.0 0.00 0.15 0.15 99 1015.9
20260901112202 68 162 0.0 0.0 0.00 0.15 0.15 99 1016.6
20260901111702 68 164 0.0 0.0 0.00 0.15 0.15 99 1016.2
20260901111155 68 166 0.0 0.0 0.00 0.15 0.15 99 1016.2
20260901110650 68 160 0.0 0.0 0.00 0.15 0.15 99 1016.2
20260901110145 68 158 0.0 0.0 0.00 0.15 0.15 99 1016.2
20260901105642 68 133 0.0 0.0 0.00 0.15 0.15 99 1016.2
20260901105141 68 180 0.0 0.0 0.00 0.15 0.15 99 1016.2
20260901104637 68 159 0.0 0.0 0.00 0.15 0.15 99 1016.2
20260901104132 68 159 0.0 0.0 0.00 0.15 0.15 99 1015.9
20260901103631 68 169 0.0 0.0 0.00 0.15 0.15 99 1015.9
20260901103127 67 164 0.0 0.0 0.00 0.15 0.15 99 1015.9
20260901102622 67 161 0.0 0.0 0.00 0.15 0.15 99 1015.9
20260901102122 67 172 0.0 0.0 0.00 0.15 0.15 99 1015.9
20260901101618 67 160 0.0 0.0 0.00 0.15 0.15 99 1015.9
20260901101117 67 158 0.0 0.0 0.00 0.15 0.15 99 1015.6
20260901100617 67 175 0.0 0.0 0.00 0.15 0.15 99 1015.9
20260901100112 67 160 0.0 0.0 0.00 0.15 0.15 99 1015.9
20260901095610 67 151 0.0 0.0 0.00 0.15 0.15 99 1016.2
20260901095108 67 172 1.0 1.0 0.00 0.15 0.15 99 1015.9
20260901094603 67 162 0.0 0.0 0.00 0.15 0.15 99 1016.2
20260901094102 67 166 0.0 0.0 0.05 0.15 0.15 99 1016.2
20260901093557 67 159 0.0 0.0 0.12 0.15 0.15 99 1016.2
20260901093052 67 154 0.0 0.0 0.07 0.14 0.14 99 1016.6
20260901092548 67 160 0.0 0.0 0.00 0.13 0.13 99 1016.6
20260901092044 67 162 0.0 0.0 0.00 0.13 0.13 99 1016.2
20260901091539 67 158 0.0 0.0 0.00 0.13 0.13 99 1016.2
20260901091040 67 148 0.0 0.0 0.00 0.13 0.13 99 1015.9
20260901090539 67 198 0.0 0.0 0.00 0.13 0.13 99 1016.6
20260901090035 67 166 0.0 0.0 0.00 0.13 0.13 99 1015.9
20260901085530 67 158 0.0 0.0 0.00 0.13 0.13 99 1015.9
20260901085027 67 177 0.0 0.0 0.00 0.13 0.13 99 1015.9
20260901084522 67 168 0.0 0.0 0.00 0.13 0.13 99 1015.9
20260901084019 67 159 0.0 0.0 0.00 0.13 0.13 99 1015.9
20260901083518 67 160 0.0 0.0 0.00 0.13 0.13 99 1015.9
20260901083016 67 160 0.0 0.0 0.00 0.13 0.13 99 1015.9
20260901082511 67 160 0.0 0.0 0.00 0.13 0.13 99 1015.9
20260901082007 67 159 0.0 0.0 0.00 0.13 0.13 99 1015.9
20260901081501 67 166 0.0 0.0 0.00 0.13 0.13 99 1016.2
20260901080956 67 161 0.0 0.0 0.00 0.13 0.13 99 1016.2
20260901080455 67 160 0.0 0.0 0.00 0.13 0.13 99 1016.2
20260901075950 67 160 0.0 0.0 0.00 0.13 0.13 99 1016.2
20260901075446 67 160 0.0 0.0 0.00 0.13 0.13 99 1016.2
20260901074945 67 162 0.0 0.0 0.00 0.13 0.13 99 1016.6
20260901074445 67 160 0.0 0.0 0.00 0.13 0.13 99 1016.6
20260901073940 67 160 0.0 0.0 0.00 0.13 0.13 99 1016.2
20260901073437 67 159 0.0 0.0 0.00 0.13 0.13 99 1016.6
20260901072931 67 162 0.0 0.0 0.00 0.13 0.13 99 1016.6
20260901072426 67 157 0.0 0.0 0.00 0.13 0.13 99 1016.6
20260901071922 67 157 0.0 0.0 0.24 0.13 0.13 99 1016.9
20260901071420 67 164 0.0 0.0 0.38 0.12 0.12 99 1016.6
20260901070919 67 161 0.0 0.0 0.24 0.09 0.09 99 1016.9
20260901070415 67 158 0.0 0.0 0.17 0.06 0.06 99 1016.9
20260901065913 67 158 0.0 0.0 0.19 0.05 0.05 99 1016.9
20260901065409 67 165 0.0 0.0 0.12 0.03 0.03 99 1016.9
20260901064904 67 157 0.0 0.0 0.07 0.01 0.01 99 1016.9
20260901064401 67 164 0.0 0.0 0.00 0.00 0.00 99 1016.9
20260901063858 67 165 0.0 0.0 0.00 0.00 0.00 99 1016.9
20260901063354 67 160 0.0 0.0 0.00 0.00 0.00 99 1017.3
20260901062849 67 160 0.0 0.0 0.00 0.00 0.00 99 1017.3
20260901062346 67 162 0.0 0.0 0.00 0.00 0.00 99 1017.6
20260901061841 67 162 0.0 0.0 0.00 0.00 0.00 99 1016.9
20260901061336 67 159 0.0 0.0 0.00 0.00 0.00 99 1017.3
20260901060831 67 161 0.0 0.0 0.00 0.00 0.00 99 1017.6
20260901060327 67 161 0.0 0.0 0.00 0.00 0.00 99 1017.3
20260901055821 67 149 0.0 1.0 0.00 0.00 0.00 99 1017.6
20260901055318 67 170 0.0 0.0 0.00 0.00 0.00 99 1017.3
20260901054814 67 160 0.0 0.0 0.00 0.00 0.00 99 1017.3
20260901054311 67 160 0.0 1.0 0.00 0.00 0.00 99 1017.6
20260901053801 67 162 0.0 0.0 0.00 0.00 0.00 99 1017.6
20260901053256 67 166 0.0 0.0 0.00 0.00 0.00 99 1017.6
20260901052751 67 160 0.0 0.0 0.00 0.00 0.00 99 1017.6
20260901052247 67 160 0.0 0.0 0.00 0.00 0.00 99 1017.6
20260901051746 67 159 0.0 0.0 0.00 0.00 0.00 99 1017.6
20260901051241 67 162 0.0 0.0 0.00 0.00 0.00 99 1017.9
20260901050736 67 164 0.0 0.0 0.00 0.00 0.00 99 1017.6
20260901050231 67 159 0.0 0.0 0.00 0.00 0.00 99 1017.6
20260901045726 67 162 0.0 0.0 0.00 0.00 0.00 99 1017.9
20260901045221 67 153 0.0 0.0 0.00 0.00 0.00 99 1017.9
20260901044716 67 167 0.0 0.0 0.00 0.00 0.00 99 1017.6
20260901044214 67 161 0.0 0.0 0.00 0.00 0.00 99 1017.6
20260901043708 67 164 0.0 0.0 0.00 0.00 0.00 99 1017.9
20260901043203 67 161 0.0 0.0 0.00 0.00 0.00 99 1017.9
20260901042703 67 161 0.0 0.0 0.00 0.00 0.00 99 1017.9
20260901042157 67 161 0.0 0.0 0.00 0.00 0.00 99 1018.3
20260901041654 67 161 0.0 0.0 0.00 0.00 0.00 99 1017.9
20260901041153 67 155 0.0 0.0 0.00 0.00 0.00 99 1017.9
20260901040648 67 156 0.0 0.0 0.00 0.00 0.00 99 1018.3
20260901040147 67 138 0.0 0.0 0.00 0.00 0.00 99 1018.3
20260901035645 67 160 0.0 0.0 0.00 0.01 0.01 99 1017.9
20260901035144 67 157 0.0 0.0 0.00 0.01 0.01 99 1018.3
20260901034639 68 165 0.0 0.0 0.00 0.01 0.01 99 1018.3
20260901034139 68 162 0.0 0.0 0.00 0.01 0.01 99 1017.9
20260901033638 68 166 0.0 0.0 0.00 0.01 0.01 99 1018.3
20260901033137 68 160 0.0 0.0 0.00 0.01 0.01 99 1018.3
20260901032636 68 160 0.0 0.0 0.00 0.01 0.01 99 1018.3
20260901032131 68 161 0.0 0.0 0.00 0.01 0.01 99 1018.3
20260901031627 68 158 0.0 0.0 0.00 0.01 0.01 99 1018.3
20260901031122 68 158 0.0 0.0 0.00 0.01 0.01 99 1018.3
20260901030617 68 156 0.0 0.0 0.00 0.01 0.01 99 1018.3
20260901030112 68 161 0.0 0.0 0.00 0.01 0.01 99 1018.3
20260901025611 68 166 0.0 0.0 0.00 0.01 0.01 99 1018.3
20260901025106 68 165 0.0 0.0 0.00 0.01 0.01 99 1018.3
20260901024601 68 162 0.0 0.0 0.00 0.01 0.01 99 1018.3
20260901024100 68 164 0.0 0.0 0.00 0.01 0.01 99 1018.3
20260901023559 68 162 0.0 0.0 0.00 0.01 0.01 98 1018.3
20260901023054 68 167 0.0 0.0 0.00 0.01 0.01 99 1018.3
20260901022549 68 164 0.0 0.0 0.00 0.01 0.01 98 1018.3
20260901022044 68 144 0.0 0.0 0.00 0.01 0.01 98 1018.3
20260901021540 68 161 0.0 0.0 0.00 0.01 0.01 98 1018.3
20260901021035 68 56 2.0 2.0 0.00 0.01 0.01 98 1018.3
20260901020530 68 150 0.0 1.0 0.00 0.01 0.01 98 1018.6
20260901020026 68 155 0.0 0.0 0.00 0.01 0.01 98 1018.6
20260901015521 68 158 0.0 0.0 0.00 0.01 0.01 98 1018.3
20260901015020 68 153 0.0 0.0 0.00 0.01 0.01 98 1018.6
20260901014516 68 160 0.0 0.0 0.00 0.01 0.01 98 1018.6
20260901014012 68 147 0.0 0.0 0.00 0.01 0.01 98 1018.6
20260901013508 68 158 0.0 0.0 0.00 0.01 0.01 98 1018.6
20260901013003 68 161 0.0 0.0 0.00 0.01 0.01 98 1018.6
20260901012502 68 157 0.0 0.0 0.00 0.01 0.01 98 1018.9
20260901011958 68 159 0.0 0.0 0.00 0.01 0.01 98 1018.9
20260901011454 68 235 2.0 3.0 0.00 0.01 0.01 98 1018.9
20260901010952 68 157 0.0 0.0 0.00 0.01 0.01 98 1018.9
20260901010447 68 160 0.0 0.0 0.00 0.01 0.01 98 1018.6
20260901005946 68 163 0.0 0.0 0.00 0.01 0.01 98 1018.6
20260901005441 68 152 0.0 0.0 0.00 0.01 0.01 98 1018.6
20260901004936 68 157 0.0 0.0 0.00 0.01 0.01 98 1018.6
20260901004436 68 153 0.0 0.0 0.00 0.01 0.01 98 1018.6
20260901003931 68 161 0.0 0.0 0.00 0.01 0.01 98 1018.6
20260901003426 68 160 0.0 0.0 0.00 0.01 0.01 98 1018.6
20260901002924 68 154 0.0 0.0 0.00 0.01 0.01 98 1018.6
20260901002424 68 150 0.0 0.0 0.00 0.01 0.01 98 1018.6
20260901001919 69 161 0.0 0.0 0.00 0.01 0.01 98 1018.3
20260901001414 69 162 0.0 0.0 0.00 0.01 0.01 98 1018.3
20260901000909 69 160 0.0 0.0 0.00 0.01 0.01 98 1018.3
20260901000405 69 161 0.0 0.0 0.00 0.01 0.01 98 1018.3